Weather History for KVPZ - November, 2013

Change the Weather History Date:

Wednesday, November 13, 2013

  Actual Average Record
Temperature  
Mean Temperature 25 °F 42 °F  
Max Temperature 35 °F 50 °F 71 °F (1999)
Min Temperature 15 °F 34 °F 15 °F (2013)
Degree Days  
Heating Degree Days 40 23  
Month to date heating degree days 318 264  
Since 1 July heating degree days 857 794  
Cooling Degree Days 0 0  
Month to date cooling degree days 0 0  
Year to date cooling degree days 810 713  
Moisture  
Dew Point 18 °F    
Average Humidity 74    
Maximum Humidity 96    
Minimum Humidity 50    
Precipitation  
Precipitation 0.00 in 0.12 in 0.28 in (2000)
Month to date precipitation 1.24 1.60  
Year to date precipitation 33.71 33.60  
Sea Level Pressure  
Sea Level Pressure 30.47 in    
Wind  
Wind Speed 12 mph (SW)    
Max Wind Speed 20 mph    
Max Gust Speed 25 mph    
Visibility 10 miles    
Events      
T = Trace of Precipitation, MM = Missing Value Source: NWS Daily Summary

Daily Weather History Graph

Daily Weather History Graph

Search for Another Location

Airport or City:

Trip Planner

Search our weather history database for the weather conditions in past years. The results will help you decide how hot, cold, wet, or windy it might be!

Date:

Astronomy

Nov. 13, 2013 Rise Set
Actual Time 6:34 AM CST 4:29 PM CST
Civil Twilight 6:04 AM CST 4:59 PM CST
Nautical Twilight 5:31 AM CST 5:32 PM CST
Astronomical Twilight 4:58 AM CST 6:05 PM CST
Moon 2:19 PM CST (11/13) 2:24 AM CST (11/13)
Length of Visible Light 10h 54m
Length of Day
9h 55m
Waxing Gibbous, 85% of the Moon is Illuminated
Nov 13
Waxing Gibbous
Nov 17
Full
Nov 25
Last Quarter
Dec 2
New
Dec 9
First Quarter

Hourly Weather History & Observations

Time (CST) Temp. Windchill Dew Point Humidity Pressure Visibility Wind Dir Wind Speed Gust Speed Precip Events Conditions
12:53 AM 18.0 °F 9.8 °F 16.0 °F 92% 30.62 in 10.0 mi SSW 5.8 mph - N/A   Clear
1:53 AM 17.1 °F 10.0 °F 15.1 °F 92% 30.62 in 10.0 mi West 4.6 mph - N/A   Clear
2:53 AM 18.0 °F 8.7 °F 15.1 °F 88% 30.62 in 10.0 mi WSW 6.9 mph - N/A   Clear
3:53 AM 16.0 °F 8.8 °F 15.1 °F 96% 30.61 in 10.0 mi SSW 4.6 mph - N/A   Clear
4:53 AM 17.1 °F 6.6 °F 14.0 °F 88% 30.60 in 10.0 mi WSW 8.1 mph - N/A   Clear
5:53 AM 16.0 °F 6.3 °F 14.0 °F 92% 30.60 in 10.0 mi SW 6.9 mph - N/A   Clear
6:53 AM 17.1 °F 8.7 °F 14.0 °F 88% 30.61 in 10.0 mi SW 5.8 mph - N/A   Clear
7:53 AM 19.9 °F 9.3 °F 16.0 °F 85% 30.60 in 10.0 mi SW 9.2 mph - N/A   Clear
8:53 AM 23.0 °F 13.1 °F 18.0 °F 81% 30.58 in 10.0 mi SW 9.2 mph - N/A   Clear
9:53 AM 26.1 °F 15.6 °F 18.0 °F 71% 30.57 in 10.0 mi SW 11.5 mph - N/A   Clear
10:53 AM 28.9 °F 17.7 °F 19.0 °F 67% 30.53 in 10.0 mi SSW 15.0 mph 23.0 mph N/A   Clear
11:53 AM 30.9 °F 20.2 °F 18.0 °F 59% 30.50 in 10.0 mi SW 15.0 mph 23.0 mph N/A   Clear
12:53 PM 34.0 °F 24.2 °F 19.9 °F 56% 30.46 in 10.0 mi SSW 15.0 mph 23.0 mph N/A   Clear
1:53 PM 35.1 °F 24.8 °F 18.0 °F 50% 30.43 in 10.0 mi SSW 17.3 mph 24.2 mph N/A   Clear
2:53 PM 35.1 °F 24.5 °F 19.0 °F 52% 30.40 in 10.0 mi SW 18.4 mph - N/A   Clear
3:53 PM 34.0 °F 24.2 °F 21.9 °F 61% 30.39 in 10.0 mi SSW 15.0 mph - N/A   Clear
4:53 PM 32.0 °F 21.2 °F 23.0 °F 69% 30.36 in 10.0 mi SSW 16.1 mph - N/A   Clear
5:53 PM 30.9 °F 21.7 °F 23.0 °F 72% 30.35 in 10.0 mi SSW 11.5 mph 20.7 mph N/A   Clear
6:53 PM 30.9 °F 20.2 °F 23.0 °F 72% 30.33 in 10.0 mi SSW 15.0 mph 23.0 mph N/A   Clear
7:53 PM 30.0 °F 19.5 °F 21.9 °F 72% 30.31 in 10.0 mi SSW 13.8 mph 23.0 mph N/A   Clear
8:53 PM 30.0 °F 19.1 °F 21.0 °F 69% 30.30 in 10.0 mi SSW 15.0 mph 20.7 mph N/A   Clear
9:53 PM 30.0 °F 19.5 °F 19.9 °F 66% 30.29 in 10.0 mi SSW 13.8 mph - N/A   Clear
10:53 PM 30.0 °F 20.0 °F 19.9 °F 66% 30.26 in 10.0 mi SSW 12.7 mph - N/A   Clear
11:53 PM 28.9 °F 19.2 °F 19.9 °F 69% 30.25 in 10.0 mi SSW 11.5 mph 19.6 mph N/A   Clear